Location: Morlupo
(42.1333°N, 12.5000°E)
Time: 17:06:32
(UTC+00:00)

ATLAS 3B R/B - Pass Details

Date: 18 September 2020
Orbit: 1016 x 1179 km, 63.8° (Epoch: 04 October)

Event Time Altitude Azimuth Distance (km) Brightness Sun altitude
Rises 19:33:04 0° 328° (NNW) 3,819 6.5 -25.6°
Reaches altitude 10° 19:36:08 10° 340° (NNW) 2,886 5.6 -26.1°
Maximum altitude 19:41:51 27° 37° (NE) 1,937 3.9 -27.0°
Enters shadow 19:42:49 27° 51° (NE) 1,977 3.9 -27.2°
